Location: Rodson Ranch
(38.7188°N, 119.3202°W)
Time: 16:45:54
(UTC+00:00)

Cosmos 1484 Rocket - Pass Details

Date: 29 October 2020
Orbit: 505 x 560 km, 97.4° (Epoch: 23 November)

Event Time Altitude Azimuth Distance (km) Brightness Sun altitude
Rises 13:15:31 0° 359° (N) 2,681 6.2 -13.4°
Reaches altitude 10° 13:17:53 10° 346° (NNW) 1,776 5.2 -13.0°
Maximum altitude 13:21:05 26° 289° (WNW) 1,059 3.7 -12.4°
Drops below altitude 10° 13:24:13 10° 232° (SW) 1,739 5.0 -11.8°
Sets 13:26:31 0° 220° (SW) 2,613 6.0 -11.3°
